Weather History for MMMZ - November, 2012

Change the Weather History Date:

Thursday, November 1, 2012

  Actual Average Record
Temperature  
Mean Temperature 74 °F -  
Max Temperature 84 °F 86 °F 95 °F (2005)
Min Temperature 64 °F 64 °F 59 °F (2007)
Cooling Degree Days 9    
Growing Degree Days 24 (Base 50)    
Moisture  
Dew Point 64 °F    
Average Humidity 79    
Maximum Humidity 100    
Minimum Humidity 48    
Precipitation  
Precipitation 0.00 in - - ()
Sea Level Pressure  
Sea Level Pressure 29.89 in    
Wind  
Wind Speed 6 mph ()    
Max Wind Speed 10 mph    
Max Gust Speed -    
Visibility 9.6 miles    
Events      
Averages and records for this station are not official NWS values.
T = Trace of Precipitation, MM = Missing Value Source: Averaged Metar Reports

Daily Weather History Graph

Daily Weather History Graph

Search for Another Location

Airport or City:

Trip Planner

Search our weather history database for the weather conditions in past years. The results will help you decide how hot, cold, wet, or windy it might be!

Date:

Astronomy

Nov. 01, 2012 Rise Set
Actual Time 6:10 AM MST 5:26 PM MST
Civil Twilight 5:47 AM MST 5:49 PM MST
Nautical Twilight 5:20 AM MST 6:16 PM MST
Astronomical Twilight 4:54 AM MST 6:42 PM MST
Moon 7:39 PM MST (11/1) 8:31 AM MST (11/1)
Length of Visible Light 12h 02m
Length of Day
11h 15m
Waning Gibbous, 92% of the Moon is Illuminated
Nov 1
Waning Gibbous
Nov 6
Last Quarter
Nov 13
New
Nov 20
First Quarter
Nov 28
Full

Hourly Weather History & Observations

Time (MST) Temp. Heat Index Dew Point Humidity Pressure Visibility Wind Dir Wind Speed Gust Speed Precip Events Conditions
12:46 AM 64.4 °F - 62.6 °F 94% 29.91 in 8.0 mi North 6.9 mph - N/A   Clear
1:47 AM 64.4 °F - 62.6 °F 94% 29.91 in 8.0 mi NE 5.8 mph - N/A   Scattered Clouds
2:48 AM 64.4 °F - 62.6 °F 94% 29.89 in 8.0 mi North 6.9 mph - N/A   Partly Cloudy
3:51 AM 64.4 °F - 62.6 °F 94% 29.90 in 8.0 mi North 8.1 mph - N/A   Clear
4:46 AM 64.4 °F - 62.6 °F 94% 29.91 in 7.0 mi NNE 6.9 mph - N/A   Scattered Clouds
5:47 AM 66.2 °F - 64.4 °F 94% 29.92 in 7.0 mi North 8.1 mph - N/A   Scattered Clouds
6:46 AM 66.2 °F - 64.4 °F 94% 29.93 in 7.0 mi North 5.8 mph - N/A   Partly Cloudy
7:06 AM 66.2 °F - 66.2 °F 100% 29.94 in 3.0 mi NNE 5.8 mph - N/A   Clear
8:41 AM 73.4 °F - 69.8 °F 88% 29.96 in 6.0 mi East 5.8 mph - N/A   Clear
9:42 AM 78.8 °F - 69.8 °F 74% 29.86 in 8.0 mi South 4.6 mph - N/A   Clear
10:42 AM 80.6 °F 83.2 °F 68.0 °F 65% 29.93 in 12.0 mi ENE 5.8 mph - N/A   Partly Cloudy
11:45 AM 84.2 °F 86.6 °F 66.2 °F 55% 29.91 in 12.0 mi South 8.1 mph - N/A   Partly Cloudy
12:41 PM 84.2 °F 86.6 °F 66.2 °F 55% 29.87 in 14.0 mi South 8.1 mph - N/A   Clear
1:44 PM 84.2 °F 85.6 °F 64.4 °F 51% 29.86 in 12.0 mi SSW 10.4 mph - N/A   Clear
2:45 PM 82.4 °F 82.9 °F 60.8 °F 48% 29.85 in 12.0 mi SW 8.1 mph - N/A   Clear
3:40 PM 82.4 °F 83.4 °F 62.6 °F 51% 29.84 in 14.0 mi SW 5.8 mph - N/A   Clear
4:40 PM 78.8 °F - 64.4 °F 61% 29.85 in 14.0 mi SW 6.9 mph - N/A   Clear
5:41 PM 73.4 °F - 60.8 °F 65% 29.85 in 10.0 mi WSW 6.9 mph - N/A   Clear
6:45 PM 69.8 °F - 62.6 °F 78% 29.87 in 10.0 mi WNW 5.8 mph - N/A   Clear
7:43 PM 69.8 °F - 64.4 °F 83% 29.89 in 10.0 mi North 8.1 mph - N/A   Clear
8:48 PM 66.2 °F - 62.6 °F 88% 29.89 in 10.0 mi NNE 5.8 mph - N/A   Clear
9:44 PM 64.4 °F - 62.6 °F 94% 29.90 in 10.0 mi NNE 6.9 mph - N/A   Clear
10:50 PM 64.4 °F - 62.6 °F 94% 29.91 in 10.0 mi SE 8.1 mph - N/A   Clear
11:40 PM 64.4 °F - 62.6 °F 94% 29.91 in 10.0 mi ESE 5.8 mph - N/A   Clear